This is the latest recevied weather packets stored in our database for station/object IZ1OSY-3. If no packets are shown the sender has not sent any weather packets the latest 10 day(s).
| Time | Temp. | Humidity | Pressure | Rain* | Wind** | Luminosity | Snow |
|---|---|---|---|---|---|---|---|
| 1777812775 | 14.44° C | 56% | 1019.7 hPa | - | - | - | - |
| 1777811871 | 15° C | 54% | 1019.8 hPa | - | - | - | - |
| 1777810670 | 15° C | 54% | 1019.9 hPa | - | - | - | - |
| 1777809173 | 15.56° C | 52% | 1019.9 hPa | - | - | - | - |
| 1777808269 | 15.56° C | 54% | 1020 hPa | - | - | - | - |
| 1777807972 | 16.11° C | 52% | 1020 hPa | - | - | - | - |
| 1777806771 | 15° C | 53% | 1020.2 hPa | - | - | - | - |
| 1777805867 | 15° C | 48% | 1020.1 hPa | - | - | - | - |
| 1777805570 | 15° C | 46% | 1020.1 hPa | - | - | - | - |
| 1777804666 | 15° C | 46% | 1019.9 hPa | - | - | - | - |
| 1777802264 | 14.44° C | 46% | 1019.8 hPa | - | - | - | - |
| 1777801968 | 13.89° C | 45% | 1020 hPa | - | - | - | - |
| 1777801063 | 13.89° C | 46% | 1020 hPa | - | - | - | - |
| 1777800767 | 13.89° C | 46% | 1020.1 hPa | - | - | - | - |
| 1777798662 | 13.33° C | 44% | 1020.3 hPa | - | - | - | - |
| 1777798365 | 13.33° C | 43% | 1020.2 hPa | - | - | - | - |
| 1777797461 | 12.78° C | 45% | 1020.3 hPa | - | - | - | - |
| 1777796260 | 12.78° C | 44% | 1020.3 hPa | - | - | - | - |
| 1777795964 | 12.78° C | 45% | 1020.1 hPa | - | - | - | - |
| 1777795059 | 12.78° C | 42% | 1020 hPa | - | - | - | - |
| 1777794763 | 12.78° C | 43% | 1019.9 hPa | - | - | - | - |
| 1777793858 | 12.22° C | 42% | 1020 hPa | - | - | - | - |
| 1777793562 | 12.78° C | 41% | 1020 hPa | - | - | - | - |
| 1777792657 | 12.22° C | 39% | 1019.9 hPa | - | - | - | - |
| 1777792362 | 12.22° C | 41% | 1020 hPa | - | - | - | - |
* Rain since midnight (hover to see other rain measurements)
** Current wind speed in m/s (hover to see current wind gust speed)